RH
77 77 76 79 83 88 88 87 86 80 74 79 93 94 92 84 47 37 31 25 66 86 83 65 54 89 87 90 76 62 78 73 55 42 33 23 26 21 21 18 15 13 17 21 47
79 78 79 78 76 80 93 96 93 92 83 86 96 88 83 80 45 32 38 65 86 92 88 77 70 70 78 84 77 64 81 69 43 36 32 25 24 25 23 20 18 16 23 27 47
91 91 92 87 87 89 90 94 95 97 94 87 99 89 73 56 52 63 67 77 72 74 81 85 67 67 76 82 76 62 78 56 47 42 35 32 29 29 28 26 18 27 39 40 54
99 98 96 93 97 98 98 95 91 100 99 94 99 95 80 61 57 62 84 72 57 64 78 82 91 76 71 77 72 84 56 54 52 46 42 42 39 39 35 25 18 22 28 44 54
93 96 96 97 99 99 100 100 97 96 100 100 99 95 90 75 71 45 67 48 44 50 68 64 70 68 69 62 63 77 64 51 48 48 44 42 43 41 36 30 26 23 31 43 46
98 99 98 99 100 100 100 100 100 100 100 100 100 94 88 96 54 41 44 47 51 55 54 57 62 65 65 77 71 54 51 57 60 59 44 44 41 37 33 29 27 26 30 37 47
98 98 98 98 96 96 98 99 100 100 100 100 99 91 99 70 62 50 47 48 49 51 51 48 49 54 63 77 69 66 74 53 55 52 59 44 46 42 33 30 27 27 27 35 43
95 94 94 95 99 94 95 100 99 100 100 100 92 91 98 67 56 57 51 51 53 51 54 44 46 50 58 62 66 75 68 84 52 48 46 52 61 37 32 31 29 28 27 34 43
100 95 99 100 100 94 100 96 96 100 100 100 96 99 96 62 60 49 52 52 57 51 52 51 49 46 56 82 87 73 90 77 57 43 47 59 66 41 33 32 30 28 28 36 44
95 90 100 99 97 92 95 98 99 100 100 93 99 99 81 63 52 52 45 49 50 53 47 43 49 68 72 84 92 82 84 70 74 56 51 51 55 44 34 33 32 30 28 27 46
84 74 86 86 92 92 100 100 98 96 100 70 81 78 58 65 56 49 41 39 30 28 57 42 64 80 69 68 64 64 75 67 55 50 52 54 49 40 35 35 34 32 29 27 26
68 82 84 87 92 83 95 100 96 85 82 84 68 79 73 70 47 42 35 32 38 37 32 46 52 43 51 49 60 72 78 82 64 52 57 54 54 40 37 35 33 31 29 27 26
77 87 88 98 98 100 99 98 99 96 96 89 78 70 63 38 38 35 40 44 40 33 31 38 34 24 30 39 52 50 66 66 69 54 53 65 66 52 38 34 30 30 29 26 24
76 89 89 100 99 99 99 100 97 89 98 66 34 34 45 46 46 42 43 45 47 53 41 48 36 33 36 36 28 37 32 38 43 54 87 57 78 61 50 43 35 30 30 28 24
67 92 87 99 99 99 99 100 98 81 96 45 41 42 47 49 39 26 31 44 50 50 35 45 38 38 42 37 31 43 38 31 31 42 59 54 82 69 52 54 44 34 32 28 26
60 100 99 99 100 100 99 98 86 94 94 41 52 55 47 36 28 21 23 35 31 39 32 34 29 35 36 32 33 32 38 45 56 51 76 71 64 54 47 49 46 36 31 29 26
55 100 100 100 98 100 99 89 97 93 60 77 49 46 36 28 25 24 31 38 40 57 54 38 31 25 24 33 29 42 58 90 94 93 79 47 64 55 46 34 35 36 33 28 26
97 95 99 100 99 98 97 97 95 89 82 79 75 51 42 29 34 42 40 43 36 36 69 69 53 34 32 40 49 50 62 85 90 91 57 41 68 50 32 32 36 34 30 29 27
94 98 98 100 100 100 98 97 94 86 86 92 84 51 43 41 50 44 45 46 37 47 62 85 72 42 41 36 36 66 79 55 75 64 74 77 58 38 29 35 41 36 32 33 25
100 97 99 98 99 99 98 86 88 82 87 91 90 54 63 46 54 71 60 42 43 57 69 87 93 50 43 38 40 46 50 81 90 93 90 62 69 69 52 39 34 41 35 32 28
95 94 99 100 100 98 97 92 78 84 83 93 89 63 54 61 66 66 64 50 47 53 57 90 90 64 53 58 58 80 80 82 92 84 89 68 49 26 28 30 37 35 28 24 26
94 96 100 100 100 99 96 83 68 74 86 95 92 74 67 52 71 71 70 60 45 56 66 71 94 98 74 50 42 54 97 97 95 89 97 83 51 22 48 48 65 62 46 28 23
93 97 100 100 99 99 93 88 75 78 79 88 92 72 45 51 66 69 63 45 43 81 77 64 90 100 71 59 39 69 58 76 89 95 95 87 76 37 34 41 54 64 52 48 28
99 98 99 99 99 98 92 93 90 71 77 88 85 69 65 63 54 73 69 53 46 50 43 62 93 87 91 70 76 81 69 58 77 94 94 90 73 56 53 63 57 53 46 59 58
100 99 95 98 97 96 94 98 94 95 89 95 93 85 80 87 69 65 54 54 51 55 62 74 89 79 70 63 60 64 65 62 87 75 90 70 77 57 84 72 66 64 73 64 54
100 100 100 99 88 96 95 96 88 88 96 92 95 67 75 94 64 73 62 61 63 58 81 89 88 73 77 53 48 51 43 40 57 56 69 70 68 84 77 75 80 88 88 78 41
97 100 100 99 100 99 95 85 87 92 95 65 75 78 88 77 53 49 47 47 53 72 81 89 96 93 83 54 56 60 46 76 78 89 80 83 94 81 81 84 95 91 84 80 64
Wind_Speed
27 28 28 28 29 30 30 30 29 31 31 28 24 24 27 30 36 36 38 22 12 20 20 22 19 17 21 25 25 22 7 17 23 19 15 16 6 28 19 6 10 17 11 19 32
32 32 32 31 31 31 34 36 35 32 32 29 26 25 27 30 37 39 15 7 10 12 15 21 22 21 13 9 18 16 14 24 10 17 9 18 20 20 11 7 9 14 9 21 37
34 33 33 33 34 36 36 35 37 37 34 32 27 25 26 29 32 3 10 6 11 7 10 17 26 20 18 16 9 20 26 14 14 25 26 20 21 25 9 7 8 11 20 32 43
36 36 37 37 38 38 39 39 37 38 36 34 23 20 21 23 9 5 10 7 14 10 6 4 15 15 8 16 22 12 27 23 22 25 20 14 17 14 15 14 13 10 21 38 42
35 36 37 38 38 39 39 42 44 43 39 33 21 17 18 16 28 25 21 21 15 7 5 1 9 10 14 12 20 23 19 22 29 34 34 29 22 19 24 31 24 10 25 37 41
37 38 38 39 40 39 39 42 47 48 41 28 20 15 13 18 16 7 6 14 8 8 10 8 6 9 12 9 16 14 14 21 25 26 28 26 24 19 27 28 28 25 23 35 41
40 41 40 38 39 39 41 40 41 50 35 25 19 16 17 44 27 29 26 22 18 19 22 19 16 13 6 6 16 22 16 17 17 19 24 26 20 26 26 27 30 30 20 29 42
42 44 42 41 41 43 41 41 36 43 28 25 16 14 16 32 21 16 12 12 14 16 16 16 14 19 13 13 8 6 16 20 26 20 23 15 30 22 29 25 27 33 27 24 39
40 48 41 38 41 42 34 35 31 31 25 21 12 11 16 8 12 2 2 9 8 7 12 16 18 23 7 6 8 9 12 23 21 12 7 19 28 15 27 27 26 30 32 27 36
50 46 42 46 40 40 42 34 24 23 16 8 8 4 16 11 7 8 6 4 5 9 11 9 10 4 2 6 14 11 8 13 13 10 13 19 27 14 21 30 28 27 34 30 38
41 39 37 38 34 30 29 18 4 6 16 16 15 9 5 7 14 14 16 20 16 15 9 8 6 11 14 12 17 19 20 19 13 7 11 17 25 20 20 21 22 29 32 35 32
40 36 34 34 32 33 19 18 16 10 5 22 23 25 32 27 18 29 17 9 8 12 7 5 12 11 15 14 16 19 23 26 21 14 13 16 21 12 19 23 25 28 28 34 34
35 31 32 33 24 19 18 21 19 10 3 5 22 16 22 13 10 12 5 8 4 8 11 11 8 5 13 16 18 19 19 20 18 16 17 12 23 12 16 19 32 35 36 34 39
35 29 26 30 14 12 11 14 6 3 2 2 2 2 6 4 5 6 7 3 3 5 3 5 13 13 12 10 10 14 14 17 19 15 11 6 18 8 7 14 16 31 30 39 37
33 26 24 21 14 9 9 9 8 6 3 5 3 6 5 4 11 3 6 8 6 7 2 5 12 16 16 9 11 18 11 14 16 14 13 19 10 5 11 14 17 19 24 41 40
33 24 22 13 18 13 9 14 7 2 3 1 3 2 3 8 8 7 7 15 8 5 9 13 16 11 10 13 15 17 16 14 11 6 13 18 13 17 15 21 13 19 33 36 39
27 15 18 11 11 16 17 6 2 3 2 1 2 5 7 5 5 5 2 2 1 4 3 9 4 4 10 13 13 12 4 4 3 5 12 13 13 23 8 21 20 20 27 35 40
20 10 3 7 9 19 9 3 1 2 2 4 3 10 6 3 0 4 3 2 5 3 2 2 10 5 5 3 7 8 5 5 6 4 10 10 8 15 18 24 21 20 26 33 39
18 4 16 19 19 12 4 2 4 4 3 2 5 7 4 3 1 3 1 2 2 3 6 3 6 9 14 17 12 4 9 16 14 19 13 6 7 19 20 17 21 26 36 32 39
2 14 16 11 12 7 2 4 3 4 6 2 5 4 2 1 1 3 2 3 4 5 4 2 5 3 9 11 11 9 8 6 7 7 13 10 12 12 4 12 21 22 28 39 35
5 4 11 4 12 1 2 5 2 6 6 5 3 4 3 2 5 2 4 7 2 3 4 4 4 7 5 3 14 13 10 7 6 7 5 13 11 26 17 19 13 21 33 39 37
4 1 13 6 2 2 2 3 3 7 7 6 3 6 6 4 3 3 7 7 1 4 1 2 4 6 7 7 5 6 7 14 5 4 5 12 15 3 5 4 6 12 23 41 40
3 4 11 14 3 3 4 3 6 8 8 6 7 10 5 4 1 5 5 5 11 4 3 3 1 4 8 4 4 4 9 10 14 7 5 3 4 4 16 18 10 9 24 30 42
3 2 5 13 8 3 4 5 5 11 4 7 6 9 6 9 6 5 4 3 6 3 4 2 2 6 5 7 6 9 15 16 7 5 6 7 8 12 19 18 19 23 32 36 42
8 5 7 5 8 14 5 3 3 5 8 14 5 12 7 4 6 12 10 7 2 5 3 6 5 3 7 10 16 18 19 15 7 16 9 9 16 19 17 20 15 21 27 41 38
7 4 5 4 4 12 11 6 12 7 9 6 12 9 12 11 9 0 4 3 6 2 5 1 4 3 12 11 18 16 17 19 11 17 16 15 18 16 19 26 7 18 25 33 31
14 13 6 4 2 4 5 7 11 6 11 19 15 11 13 19 19 23 20 5 6 6 6 6 3 1 8 7 15 12 6 9 11 12 4 5 11 18 20 21 13 23 23 27 31
Wind_Direction
320 318 318 318 322 323 320 318 319 318 317 316 319 321 319 317 316 314 301 298 289 292 287 278 258 226 221 245 230 226 230 236 227 227 238 271 288 279 288 250 251 243 242 224 181
318 315 313 315 318 317 316 316 315 315 313 312 312 317 317 319 317 314 325 77 322 304 277 250 243 237 244 241 224 213 219 236 234 234 255 256 265 282 292 238 261 253 248 183 176
313 312 312 314 310 310 310 309 308 308 307 305 307 311 313 320 321 246 91 56 322 330 296 268 237 243 244 238 224 223 233 225 249 241 260 267 273 280 281 266 232 173 156 172 172
315 313 312 310 308 308 306 306 304 299 298 297 293 304 308 314 299 214 218 284 323 315 340 295 226 240 237 241 243 251 240 234 248 264 259 252 276 275 283 267 249 232 191 177 178
314 310 309 309 307 305 305 304 297 293 289 286 284 297 308 290 264 298 252 277 295 279 240 311 250 242 243 245 254 252 243 235 241 244 254 269 259 261 269 272 273 266 198 188 188
320 315 309 310 311 309 310 306 300 281 278 273 277 286 289 269 288 295 284 260 245 253 252 244 242 274 287 252 252 276 269 252 253 257 246 243 256 249 259 265 272 262 203 207 201
320 318 313 311 311 306 306 309 305 280 259 261 266 273 257 257 277 289 280 256 254 268 273 254 257 263 313 294 278 261 271 275 244 244 250 253 258 242 249 262 262 260 252 214 209
317 319 313 308 308 311 305 302 302 263 247 246 267 274 261 284 296 278 286 290 284 257 265 264 243 260 225 265 295 264 233 243 241 239 250 253 253 245 242 248 248 255 252 212 211
313 316 312 305 308 315 302 306 300 241 239 242 262 256 268 317 281 296 201 281 294 265 272 261 240 235 212 224 269 247 253 227 249 245 239 217 256 251 235 237 245 248 251 223 208
312 311 303 305 312 307 307 304 260 228 228 255 239 221 262 264 237 225 190 250 292 297 305 250 231 188 65 224 232 235 258 262 262 223 224 243 254 247 219 221 238 245 245 243 214
319 319 316 314 315 312 302 280 217 235 209 198 192 217 283 237 248 270 265 287 272 265 249 279 225 220 220 235 257 278 284 271 266 239 237 236 245 243 236 217 221 235 238 238 227
321 320 317 314 310 310 305 231 227 227 227 226 238 241 246 279 286 283 274 218 219 231 240 279 269 258 232 238 242 247 256 265 278 264 272 272 276 261 238 233 229 226 227 230 232
325 321 320 317 320 299 258 223 227 210 337 272 232 247 249 249 239 284 200 212 214 219 224 219 243 281 250 251 242 242 241 257 265 279 279 287 282 262 266 239 236 227 231 233 229
322 321 318 321 300 268 210 210 204 93 302 316 196 279 180 204 233 246 232 250 278 238 264 236 249 256 281 280 270 271 266 265 264 265 264 205 269 256 255 261 259 231 219 224 230
319 318 311 305 277 217 254 160 115 81 295 158 110 157 188 217 313 175 203 210 221 262 353 259 321 315 304 309 305 284 309 289 282 284 272 249 261 251 215 251 245 246 235 225 225
319 312 303 272 237 238 165 121 73 85 264 146 77 314 266 247 256 265 226 215 222 233 249 259 263 270 279 287 281 289 303 296 281 256 253 248 229 259 230 238 252 242 236 230 222
334 294 276 261 194 152 135 94 28 157 240 302 340 261 268 278 273 304 343 34 255 3 315 311 240 229 262 283 285 279 309 299 296 199 241 227 222 243 245 225 237 241 234 225 221
358 345 264 253 162 144 113 49 96 139 17 37 327 275 266 273 256 7 9 352 289 243 351 70 327 42 42 340 291 289 208 222 236 208 267 219 240 256 230 239 253 255 254 234 228
350 90 99 123 140 148 81 75 206 194 135 127 294 272 265 212 147 37 260 245 263 9 165 75 267 332 312 292 296 313 271 242 255 263 282 289 267 268 241 244 232 250 256 259 231
343 97 127 144 172 152 68 242 233 120 128 146 194 289 268 351 16 64 284 288 8 100 120 167 296 268 302 318 284 227 264 264 205 240 243 235 250 253 277 226 225 230 238 243 252
27 70 169 151 178 100 168 235 179 164 148 179 218 282 286 252 180 235 235 300 152 54 95 148 151 279 303 319 332 328 307 247 218 205 224 253 246 246 252 254 259 234 240 240 238
304 52 191 193 266 227 225 222 191 185 207 238 252 264 253 286 303 227 217 201 298 61 49 202 161 268 254 298 66 330 345 319 218 245 242 240 262 154 95 22 34 344 316 260 245
260 134 185 187 236 226 272 254 208 179 196 202 214 233 213 242 247 217 249 254 246 125 210 230 274 321 337 298 302 311 311 314 322 266 228 220 289 69 335 328 318 321 315 327 259
232 175 159 208 232 284 242 228 217 219 212 192 221 257 242 250 219 247 236 303 130 134 280 76 206 185 208 240 270 291 294 301 266 269 318 270 344 332 333 319 310 306 311 327 319
211 221 181 196 221 221 216 231 195 215 211 201 226 217 195 237 229 252 256 269 272 187 136 135 212 235 251 276 286 276 279 281 229 260 257 295 311 310 325 323 308 316 335 327 307
260 219 198 263 219 199 220 209 229 225 181 212 235 212 220 234 210 119 165 187 224 140 156 233 259 268 289 288 280 299 302 294 259 263 263 268 282 353 327 337 29 10 353 344 329
250 253 250 203 199 181 199 212 222 195 221 229 218 230 233 243 233 238 250 199 199 162 179 165 174 31 286 316 321 298 281 331 333 32 318 305 349 342 341 329 26 15 336 344 343